Aérodrome :
LOGIN :

S'inscrire | Disclaimer

   EN    FR    IT 

 










Légende :    VFR   VFR Marginal   IFR   IFR Intensif   IFR Très Intensif
Visi : 
Plafond : 
>= 8 km
>= 3000ft
5 à 8 km
1000 à 3000 ft
1500m à 5 km
500 à 1000 ft
800 à 1500m
200 à 500 ft
< 800m
< 200 ft
Symboles :   Orages  Brouillard  Fortes neiges  Fortes précipitations  Vent > 20 kt
SIGMETs :   Divers  Orages  Givrage  Turbulence  Onde Orograph.  Cendres Volcan.







- Altitude de l'aérodrome : 97 ft
- Code IATA : EBJ


EKEB - Esbjerg

DERNIER METAR :
  • 162320Z AUTO 19011KT 8000NDV SCT120/// 16/14 Q1015

METARs EXPIRÉS :
  • 162250Z AUTO 19011KT 6000NDV BKN120/// BKN150/// 16/15 Q1015
  • 162220Z AUTO 18012KT 6000NDV BKN130/// BKN170/// 16/15 Q1015
  • 162150Z AUTO 17012KT 7000NDV FEW062/// BKN130/// 17/15 Q1015
  • 162120Z AUTO 17011KT 5000NDV BKN140/// 16/15 Q1016
  • 162050Z AUTO 17009KT 3600NDV BR SCT120/// BKN140/// 15/14 Q1016

Prévision TAF périmée.
Pas de NOTAMs connus pour ce terrain.



MET'MAP, la Météo Aéronautique d'un coup d'oeil ! - Copyright ORBIFLY Décembre 2007 - Disclaimer

ORBIFLY MET'MAP TEAM :

Programmation & Développement : Alexandra Zaïnal
Conception & Développement : Baudouin d'Aumeries
Co-Programmation & Développement : Marc-Olivier Méhu
Soutien technique & logistique : Manuel Goepfert

Contact : metmap@orbifly.com




SOURCES & CREDITS :

   NOAA